Simultaneous Nadir Overpasses (SNOs) Predictions

Prediction of SNOs between LANDSAT-8 and METOP-B Satellite Orbit:

Table of predicted SNOs for the next 14.0 days since TLE Epoch: 9/12/2015
Index Date (LANDSAT-8) Time (LANDSAT-8) Lat,Lon (LANDSAT-8) SZA (LANDSAT-8 ) Date (METOP-B) Time (METOP-B) Lat,Lon (METOP-B) SZA (METOP-B ) Distance(km) Time Diff (sec)
1 09/14/2015 03:36:28 -81.14, -13.88 100.23 09/14/2015 03:35:22 -81.14, -13.71 100.24 2.80 66
2 09/14/2015 04:25:54 81.14, 153.85 79.80 09/14/2015 04:26:02 81.15, 153.80 79.81 0.76 8
3 09/16/2015 23:10:44 -81.14, 52.65 99.11 09/16/2015 23:09:44 -81.14, 52.74 99.13 1.69 60
4 09/17/2015 00:00:10 81.15,-139.66 80.92 09/17/2015 00:00:24 81.15,-139.75 80.91 1.48 14
5 09/19/2015 18:45:00 -81.14, 119.04 98.01 09/19/2015 18:44:06 -81.14, 119.17 98.02 2.29 54
6 09/19/2015 19:34:25 81.16, -72.93 82.07 09/19/2015 19:34:45 81.16, -72.95 82.07 0.60 20
7 09/22/2015 14:19:15 -81.13,-174.71 96.92 09/22/2015 14:18:28 -81.13,-174.81 96.95 1.79 47
8 09/22/2015 15:08:40 81.15, -6.70 83.15 09/22/2015 15:09:06 81.16, -6.56 83.18 2.59 26
9 09/25/2015 09:53:30 -81.13,-108.22 95.80 09/25/2015 09:52:49 -81.14,-108.07 95.79 2.70 41




NCC Satellite Simultaneous Nadir Overpasses (SNOs) Prediction Service
